TimePDT,TemperatureF,Dew PointF,Humidity,Sea Level PressureIn,VisibilityMPH,Wind Direction,Wind SpeedMPH,Gust SpeedMPH,PrecipitationIn,Events,Conditions,WindDirDegrees,DateUTC
12:56 AM,34.0,21.9,61,30.04,10.0,West,6.9,-,N/A,,Scattered Clouds,280,2013-04-17 07:56:00
1:56 AM,28.9,21.0,72,30.05,10.0,Calm,Calm,-,N/A,,Clear,0,2013-04-17 08:56:00
2:56 AM,28.9,18.0,64,30.05,10.0,NNW,3.5,-,N/A,,Clear,330,2013-04-17 09:56:00
3:56 AM,30.0,14.0,51,30.06,10.0,Calm,Calm,-,N/A,,Clear,0,2013-04-17 10:56:00
4:56 AM,28.0,14.0,56,30.07,10.0,Calm,Calm,-,N/A,,Partly Cloudy,0,2013-04-17 11:56:00
5:56 AM,26.1,12.9,58,30.09,10.0,North,6.9,-,N/A,,Clear,360,2013-04-17 12:56:00
6:12 AM,26.6,12.2,55,30.20,10.0,North,5.8,-,N/A,,Partly Cloudy,10,2013-04-17 13:12:00
6:56 AM,26.1,14.0,60,30.11,10.0,NNW,9.2,-,N/A,,Partly Cloudy,340,2013-04-17 13:56:00
7:56 AM,32.0,14.0,48,30.14,10.0,North,10.4,-,N/A,,Partly Cloudy,350,2013-04-17 14:56:00
8:56 AM,37.0,12.9,37,30.15,10.0,North,13.8,-,N/A,,Partly Cloudy,360,2013-04-17 15:56:00
9:56 AM,37.9,12.9,36,30.16,10.0,North,9.2,-,N/A,,Partly Cloudy,350,2013-04-17 16:56:00
10:56 AM,41.0,12.0,31,30.17,10.0,NNE,6.9,-,N/A,,Partly Cloudy,30,2013-04-17 17:56:00
11:56 AM,43.0,12.0,28,30.17,10.0,NW,8.1,19.6,N/A,,Partly Cloudy,310,2013-04-17 18:56:00
12:56 PM,46.0,10.9,24,30.16,10.0,North,8.1,17.3,N/A,,Partly Cloudy,360,2013-04-17 19:56:00
1:56 PM,48.0,10.0,22,30.15,10.0,North,11.5,19.6,N/A,,Partly Cloudy,360,2013-04-17 20:56:00
2:56 PM,51.1,10.0,19,30.14,10.0,NW,11.5,16.1,N/A,,Partly Cloudy,320,2013-04-17 21:56:00
3:56 PM,50.0,8.1,18,30.13,10.0,Variable,3.5,-,N/A,,Partly Cloudy,0,2013-04-17 22:56:00
4:56 PM,51.1,8.1,18,30.12,10.0,NW,8.1,-,N/A,,Partly Cloudy,310,2013-04-17 23:56:00
5:56 PM,51.1,6.1,16,30.13,10.0,NW,15.0,-,N/A,,Clear,320,2013-04-18 00:56:00
6:56 PM,50.0,5.0,16,30.14,10.0,North,12.7,-,N/A,,Clear,350,2013-04-18 01:56:00
7:56 PM,45.0,6.1,20,30.15,10.0,North,6.9,-,N/A,,Clear,10,2013-04-18 02:56:00
8:56 PM,39.0,5.0,24,30.17,10.0,NNE,6.9,-,N/A,,Clear,20,2013-04-18 03:56:00
9:56 PM,37.9,6.1,27,30.18,10.0,Calm,Calm,-,N/A,,Clear,0,2013-04-18 04:56:00
10:56 PM,32.0,9.0,38,30.18,10.0,SSE,3.5,-,N/A,,Clear,160,2013-04-18 05:56:00
11:56 PM,32.0,10.9,42,30.19,10.0,WSW,3.5,-,N/A,,Clear,240,2013-04-18 06:56:00